Elwood, MO

3:17 PM CST on February 14, 2016 (GMT -0600)
Rosecrans Memorial

Weather History for KSTJ - October, 2011

Change the Weather History Date:

Saturday, October 15, 2011

  Actual Average Record
Temperature  
Mean Temperature 55 °F 55 °F  
Max Temperature 73 °F 67 °F 90 °F (1938)
Min Temperature 37 °F 43 °F 25 °F (1974)
Degree Days  
Heating Degree Days 10 10  
Month to date heating degree days 49 125  
Since 1 July heating degree days 102 205  
Cooling Degree Days 0 0  
Month to date cooling degree days 32 18  
Year to date cooling degree days 491 1217  
Growing Degree Days 6 (Base 50)    
Moisture  
Dew Point 36 °F    
Average Humidity 55    
Maximum Humidity 85    
Minimum Humidity 24    
Precipitation  
Precipitation 0.00 in 0.10 in 1.36 in (1930)
Month to date precipitation 0.10 1.40  
Year to date precipitation 13.93 31.12  
Sea Level Pressure  
Sea Level Pressure 30.00 in    
Wind  
Wind Speed 6 mph (SSW)    
Max Wind Speed 20 mph    
Max Gust Speed 24 mph    
Visibility 10 miles    
Events      
T = Trace of Precipitation, MM = Missing Value Source: NWS Daily Summary

Daily Weather History Graph

Daily Weather History Graph

Search for Another Location

Airport or City:

Trip Planner

Search our weather history database for the weather conditions in past years. The results will help you decide how hot, cold, wet, or windy it might be!

Date:

Astronomy

Oct. 15, 2011 Rise Set
Actual Time 7:29 AM CDT 6:40 PM CDT
Civil Twilight 7:02 AM CDT 7:07 PM CDT
Nautical Twilight 6:31 AM CDT 7:39 PM CDT
Astronomical Twilight 5:59 AM CDT 8:10 PM CDT
Moon 8:38 PM CDT (10/15) 10:54 AM CDT (10/15)
Length of Visible Light 12h 05m
Length of Day
11h 10m
Waning Gibbous, 89% of the Moon is Illuminated
Oct 15
Waning Gibbous
Oct 19
Last Quarter
Oct 26
New
Nov 2
First Quarter
Nov 10
Full

Hourly Weather History & Observations

Time (CDT) Temp. Windchill Dew Point Humidity Pressure Visibility Wind Dir Wind Speed Gust Speed Precip Events Conditions
12:53 AM 45.0 °F 43.5 °F 32.0 °F 60% 30.06 in 10.0 mi NNW 3.5 mph - N/A   Clear
1:53 AM 43.0 °F - 32.0 °F 65% 30.07 in 10.0 mi Calm Calm - N/A   Clear
2:53 AM 44.1 °F - 30.9 °F 60% 30.08 in 10.0 mi Calm Calm - N/A   Clear
3:53 AM 44.1 °F - 33.1 °F 65% 30.08 in 10.0 mi Calm Calm - N/A   Clear
4:53 AM 39.9 °F 37.8 °F 34.0 °F 79% 30.09 in 10.0 mi SSW 3.5 mph - N/A   Clear
5:53 AM 39.9 °F - 34.0 °F 79% 30.10 in 10.0 mi Calm Calm - N/A   Clear
6:53 AM 39.9 °F - 35.1 °F 83% 30.11 in 10.0 mi Calm Calm - N/A   Clear
7:53 AM 41.0 °F 38.0 °F 35.6 °F 81% 30.10 in 10.0 mi SSW 4.6 mph - N/A   Clear
8:53 AM 46.0 °F - 36.0 °F 68% 30.12 in 10.0 mi Calm Calm - N/A   Clear
9:53 AM 50.0 °F - 36.0 °F 59% 30.12 in 10.0 mi Calm Calm - N/A   Clear
10:53 AM 55.9 °F - 37.9 °F 51% 30.10 in 10.0 mi SSW 4.6 mph - N/A   Clear
11:53 AM 62.6 °F - 35.6 °F 37% 30.07 in 10.0 mi South 8.1 mph - N/A   Clear
12:53 PM 66.9 °F - 28.0 °F 23% 30.06 in 10.0 mi SW 10.4 mph - N/A   Clear
1:53 PM 69.1 °F - 35.1 °F 29% 30.01 in 10.0 mi South 10.4 mph - N/A   Clear
2:53 PM 72.0 °F - 35.1 °F 26% 29.96 in 10.0 mi SSW 10.4 mph - N/A   Clear
3:53 PM 73.0 °F - 36.0 °F 26% 29.93 in 10.0 mi South 15.0 mph - N/A   Clear
4:53 PM 73.4 °F - 37.4 °F 27% 29.91 in 10.0 mi SSW 17.3 mph 23.0 mph N/A   Clear
5:53 PM 72.0 °F - 37.9 °F 29% 29.88 in 10.0 mi SSW 12.7 mph - N/A   Clear
6:53 PM 64.0 °F - 41.0 °F 43% 29.87 in 10.0 mi South 6.9 mph - N/A   Clear
7:53 PM 61.0 °F - 41.0 °F 48% 29.86 in 10.0 mi South 5.8 mph - N/A   Clear
8:53 PM 59.0 °F - 41.0 °F 51% 29.85 in 10.0 mi Calm Calm - N/A   Clear
9:53 PM 55.9 °F - 43.0 °F 62% 29.86 in 10.0 mi SSW 4.6 mph - N/A   Clear
10:53 PM 57.0 °F - 44.1 °F 62% 29.84 in 10.0 mi SSW 4.6 mph - N/A   Clear
11:53 PM 57.0 °F - 43.0 °F 59% 29.82 in 10.0 mi South 5.8 mph - N/A   Clear